COSMOS 1275 DEB, 13798

Orbit data source: Space-Track

COSMOS 1275 DEB, 13798 is space debris in LEO originally from a launch on Thu, 04 Jun 1981 UTC launched from the Plesetsk Missile And Space Complex (PKMTR). Debris objects in space refer to the collection of defunct objects orbiting the Earth. Examples of debris include non-operational satellites, rocket bodies, and fragments generated from explosions, collisions, or faulty payload assembly.

Loading next visibility...
Identifier
13798, 1981-053GS
Orbit
LEO
Country
Flag of CISCIS
Related business
Manufacturer
Unknown
Mission
Spacecraft
Bus & Motor
Unknown
Mass
Unknown
Launch date (UTC)
1981-06-04 (45 years ago)
Launch vehicle
Unknown
Launch site
Plesetsk Missile And Space Complex (PKMTR)
Object type
Payload
Rocket body
Debris
Shape & HBR
Unknown shape, 0.1 m
Radar Cross Section
Small (<0.1 m²)

Expand to show TLE details & history
Last TLE update: 7 hours ago

TLE from 7 hours ago
0 COSMOS 1275 DEB
1 13798U 81053GS  26045.43958847  .00000695  00000-0  62550-3 0  9991
2 13798  83.0107 195.7452 0078026 111.9354 249.0123 13.81251407225438
Epoch: 2026-02-14T10:33Z
TLE epoch observation values (Epoch: 2026-02-14T10:33:00.443Z)
Latitude
-0.00004°
Longitude
-106.96927°
Altitude
983.26 km
Speed
7.35 km/s
True Right ascension
13h 02m 58s
True Declination
0° 00' 00"
Sunlit
Object was in full shadow at epoch
Visualization orbit readout
Latitude
Unknown
Longitude
Unknown
Altitude
Unknown
Speed
Unknown
Apparent Right ascension
Unknown
Apparent Declination
Unknown
Sunlit
N/A
Visualization observer readout
Local Sidereal Time
19:56:00
Azimuth
Unknown
Elevation
Unknown
Doppler factor
Unknown
Orbital elements
Apogee altitude
1,013.819 km
Perigee altitude
899.359 km
Semi-major axis
7,334.726 km
Eccentricity
0.0078
Inclination
83.0107°
RAAN
195.7452°
Arg. of periapsis
111.9354°
True anomaly
248.18044°
Mean anomaly
249.0123°
Eccentric anomaly
248.59608°
Mean motion
3.45515 °/min
Orbital period
104.19 mins
BSTAR
0.0006255
Loading maneuver chart data...
Computing Atmospheric mass density...
Loading historical data...
Loading historical data...
Loading historical data...
Loading historical data...
Loading historical data...
Loading historical data...
Loading historical data...

Documentation

Showing up to 5 results
|